Weather in Lipsko

Poland     51°09′21″N   21°39′09″E
temp.,
°C
wind,
m/s
gust,
m/s
humid.,
%
clouds,
%
prec.,
mm/h
press.,
hPa
HPBL,
m
26 february, fri
fri2601:00+6wsw35860 0.0 102777
04:00+5w35910 0.0 102678
07:00+5wsw33940 0.0 102553
10:00+9w358716 0.0 1025291
13:00+12wnw357822 0.0 1024560
16:00+8nw4109196 0.8 1023504
19:00+6nw6118698 1.7 1023655
22:00+5wnw51284100 0.1 1024613
27 february, sat
sat2701:00+4wnw51388100 0.1 1026605
04:00+4wnw6118599 0.1 1025739
07:00+3wnw71287100 0.1 1025739
10:00+4nw71181100 0.0 10261012
13:00+5nw8117298 0.1 10281106
16:00+5nw71170100 0.0 10281080
19:00+3nw5137789 0.0 1029589
22:00+1nw512850 0.0 1031429
28 february, sun
sun2801:000nw511920 0.0 1032360
04:00−1nw499513 0.0 1032331
07:000nw469049 0.0 1033364
10:00+3nw587293 0.0 1033609
13:00+6nw576047 0.0 1032995
16:00+6nw48650 0.0 1031755
19:00+3wnw411800 0.0 1032258
22:00+2nw5118761 0.0 1032303
1 march, mon
mon101:00+2nw499474 0.0 1033248
04:00+2nw479696 0.0 1033272
07:00+1nw469593 0.0 1034255
10:00+2nnw459299 0.0 1035320
13:00+7nnw457087 0.0 1035626
16:00+8nnw47711 0.0 1034695
19:00+4nw34872 0.0 103568
22:00+3nnw23900 0.0 103630
2 march, tue
tue201:00+2nw23900 0.0 103723
04:00+1nw22910 0.0 103722
07:00+1w22917 0.0 103722
10:00+7wnw236970 0.0 1038268
13:00+10w235440 0.0 1037634
16:00+10w22600 0.0 103586
19:00+6w22730 0.0 103522
22:00+4wsw22820 0.0 103522